Location: Ajisawe
(8.4333°N, 4.3833°E)
Time: 10:58:33
(UTC+00:00)

Vanguard 2 Rocket - Pass Details

Date: 19 April 2021
Orbit: 553 x 3326 km, 32.9° (Epoch: 07 May)

Event Time Altitude Azimuth Distance (km) Brightness Sun altitude
Rises 10:58:32 0° 241° (WSW) 5,151 10.6 79.0°
Reaches altitude 10° 11:01:22 10° 242° (WSW) 4,458 10.4 79.7°
Maximum altitude 11:14:59 78° 327° (NNW) 2,876 11.4 82.8°
Drops below altitude 10° 11:35:19 10° 53° (NE) 6,282 11.4 86.7°
Sets 11:40:15 0° 55° (NE) 7,265 11.5 87.1°
